FENGYUN 1C DEB

Satellite information

Favourite Embed

Satellite Type and Status

DEBRISIN ORBIT

Key statistics

Satellite FENGYUN 1C DEB at a glance.

Uptime

9714

Days in orbit

Revolutions

≈ 13.8

Per day

Orbit

SSO

Sun Synchronous Orbit

Inclination

98.8

Latest

Satellite identification and parameters

Extended collection of information and parameters for FENGYUN 1C DEB.

Object identification

Identified? True

Debris? True

Object name: FENGYUN 1C DEB

International designator: 1999-025BEX

Object number (NORAD): 31053

Object ID (CCSDS): 31053

Country: PEOPLES REPUBLIC OF CHINA (PRC)

Current information (Y/N): Y

RCS size: SMALL

Orbital parameters

Period: 104.663 minutes

Inclination: 98.7939 deg

SMA: 7356.785 km

Apoapsis: 1206.251 km

Periapsis: 751.049 km

RAAN: 106.0672 deg

Eccentricy: 0.0309376

Argument of periapsis: 104.1614 deg

Mean anomaly: 259.4116 deg

Mean motion: 13.75848728 rev/day

Mean motion (dot): 0.00003538 rev/day2

B* drag term: 0.0025997 1/REarth

Two-line elements (TLE)

Creation date: Dec. 9, 2025, 3:26 p.m.

Reference frame: TEME

Reference center: EARTH

Epoch: Dec. 9, 2025, 7:15 a.m. UTC

TLE line 0: 0 FENGYUN 1C DEB

TLE line 1: 1 31053U 99025BEX 25343.30222021 .00003538 00000-0 25997-2 0 9999

TLE line 2: 2 31053 98.7939 106.0672 0309376 104.1614 259.4116 13.75848728934294

Live tracking on map

Real-time ground track for satellite FENGYUN 1C DEB.

In-orbit conjunctions

A list of the most updated potential collisions computed for object FENGYUN 1C DEB.

Target Orbit TCA Probability of collision Miss distance Type
DTUSAT SSO 2025-02-25 00:07:04 0.002817415 21.0 (m) PAYLOAD
COSMOS 409 LEO 2024-09-20 11:41:24 0.0001356427 105.0 (m) PAYLOAD

Associated space launch

Chinese polar orbiting meteorological satellite

FENGYUN 1C DEB was lifted into orbit during the mission ‘Long March 4B | Feng Yun 1C’, on board a Long March 4B space rocket.

The launch took place on May 10, 1999, 1:33 a.m. from Launch Complex 7.

For more information about the launch, click the button.

Launch to space Long March 4B | Feng Yun 1C
Long March 4B | Feng Yun 1C

Agency: N/A

Status: Launch Successful

Launch date: May 10, 1999, 1:33 a.m. UTC

Rocket: Long March 4B

Launch pad: Launch Complex 7

Location: Taiyuan Satellite Launch Center, People's Republic of China

...

Latest news about this satellite

There are no fresh news available about this satellite. Check back as we update our databases every day.


Newsletter sign-up

Weekly statistics, charts and insights to help you stay on top of the space industry.